Regional Weather Roundup
Issued by NWS Sterling, VA

Home | Current Version | Previous Version | Text Only | Print | Product List | Glossary Off
Versions: 1 2 3 4 5 6 7 8 9 10 11 12 13 14 15 16 17 18 19 20 21 22 23 24 25 26 27 28 29 30 31 32 33 34 35 36 37 38 39 40 41 42 43 44 45 46 47 48 49 50

844
ASUS41 KLWX 011210
RWRLWX

REGIONAL WEATHER ROUNDUP
NATIONAL WEATHER SERVICE BALTIMORE MD/WASHINGTON DC
800 AM EDT SAT OCT 01 2016

Note: "FAIR" indicates few or no clouds below 12,000 feet
with no significant weather and/or obstructions to visibility.
 TC=TEMPERATURE CELSIUS

 * =Non NWS site. Station does not report precipitation (e.g. rain,
    snow, etc.), thunder, or fog.

DCZ001-MDZ009-015-VAZ040>042-051-053>054-011300-
WASHINGTON METRO

CITY           SKY/WX    TMP DP  RH WIND       PRES   REMARKS
WASHINGTON NAT DRIZZLE   64  64 100 NE14      30.12R
DULLES         LGT RAIN  62  60  93 N3        30.13R FOG
ANDREWS AFB    CLOUDY    63  62  97 NE12G21   30.09S FOG
FT BELVOIR     LGT RAIN  64  63  94 VRB3      30.10R FOG
QUANTICO       CLOUDY    67  64  90 NE9       30.10S
COLLEGE PARK*  CLOUDY    61  59  94 NE6       30.12R
LEESBURG*      LGT RAIN  61  61 100 CALM      30.14R
MANASSAS*      RAIN      63  63 100 N8        30.11R
GAITHERSBURG*  CLOUDY    61 N/A N/A E5        30.17R

$$

MDZ006>007-011-014-011300-
BALTIMORE METRO

CITY           SKY/WX    TMP DP  RH WIND       PRES   REMARKS
BWI AIRPORT    DRIZZLE   61  60  97 NE14      30.14R FOG
MD SCIENCE CTR   N/A     61  58  90 MISG      30.14R
MARTIN STATE   CLOUDY    61  61 100 NE5       30.16R FOG
ANNAPOLIS      CLOUDY    64  63  96 NE9       30.13R
FORT MEADE*    CLOUDY    61  59  94 E6        30.15S

$$

MDZ012-015-019>023-011300-
MARYLAND EASTERN SHORE

CITY           SKY/WX    TMP DP  RH WIND       PRES   REMARKS
OCEAN CITY     CLOUDY    67  67 100 E12       30.12R
SALISBURY      CLOUDY    67  67 100 E10       30.11S FOG
BAY BRIDGE AP* CLOUDY    63  63 100 MISG      30.12S FOG
EASTON*        CLOUDY    66  64  94 E9        30.16R FOG

$$

MDZ017>025-011300-
SOUTHERN MARYLAND

CITY           SKY/WX    TMP DP  RH WIND       PRES   REMARKS
PATUXENT RIVER DRIZZLE   68  66  93 E16G23    30.08R
ST INIGOES     CLOUDY    70  68  93 E15G22    30.07R
LEONARDTOWN*   CLOUDY    66  64  94 E7        30.10R

$$

MDZ003>005-011300-
NORTH CENTRAL MARYLAND

CITY           SKY/WX    TMP DP  RH WIND       PRES   REMARKS
FREDERICK*     CLOUDY    59  59 100 N9        30.17R FOG
HAGERSTOWN APT LGT RAIN  58  55  90 NW6       30.15R

$$

MDZ501>502-011300-
WESTERN MARYLAND

CITY           SKY/WX    TMP DP  RH WIND       PRES   REMARKS
OAKLAND*       FOG       50  50 100 SE8       30.15S VSB 1/4
CUMBERLAND*    CLOUDY    59  59 100 CALM      30.19R

$$

VAZ025>031-011300-
SHENANDOAH VALLEY

CITY           SKY/WX    TMP DP  RH WIND       PRES   REMARKS
WINCHESTER*    CLOUDY    57  57 100 N3        30.15R FOG
FRONT ROYAL*   CLOUDY    57  57 100 N3        30.13R
LURAY*         CLOUDY   N/A N/A N/A NE7       30.13R
NEW MARKET*    CLOUDY   N/A N/A N/A NE6       30.13R
STAUNTON*      CLOUDY    58  57  97 CALM      30.15R
WAYNESBORO*    CLOUDY    57  56  96 MISG      30.13R VSB 1/2

$$

WVZ021-048>050-054>055-011300-
EASTERN WEST VIRGINIA PANHANDLE

CITY           SKY/WX    TMP DP  RH WIND       PRES   REMARKS
MARTINSBURG    CLOUDY    57  56  96 N6        30.15R FOG
PETERSBURG*    CLOUDY    59  58  99 CALM      30.14S FOG

$$

VAZ036>039-050-011300-
CENTRAL FOOTHILLS

CITY           SKY/WX    TMP DP  RH WIND       PRES   REMARKS
CHARLOTTESVILL CLOUDY    64  61  90 NE7       30.10R
CULPEPER*      CLOUDY    63  63  98 N5        30.12S
ORANGE*          N/A     63  63 100 NW9       30.11S FOG
GORDONSVILLE*  CLOUDY    63  63 100 NE3       30.10R
WARRENTON*     RAIN      63  59  87 N5        30.11R

$$

VAZ055>057-011300-
NORTH AND CENTRAL PIEDMONT

CITY           SKY/WX    TMP DP  RH WIND       PRES   REMARKS
FREDERICKSBRG* CLOUDY    66  66 100 NW5       30.08R
STAFFORD*      CLOUDY    65  65 100 N5        30.13R FOG

$$

NCZ024-NYZ072-PAZ021-071-VAZ022-071-011300-
OTHER REGIONAL OBSERVATIONS

CITY           SKY/WX    TMP DP  RH WIND       PRES   REMARKS
NEW YORK CITY  CLOUDY    57  54  89 NE9       30.25R
PHILADELPHIA   CLOUDY    58  56  93 NE12      30.19R
PITTSBURGH     MOCLDY    56  56 100 E3        30.09F
ROANOKE        CLOUDY    62  60  93 NE7       30.11S
RICHMOND       DRIZZLE   72  71  97 SW5       30.06R FOG
RALEIGH        FOG       66  66 100 CALM      30.07R VSB 1/16

$$

ANZ530>537-011300-
MARINE OBSERVATIONS

STATION/POSITION TIME  TEMP    WIND        PRES
                       AIR SEA DIR/SP/G
                 (UTC) (F)     (DEG/KT/KT) (MB)
THOMAS PT LIGHT  1200   64 71   60/ 15/ 17 1021.1R
BALT KEY BRIDGE  1148   61      60/ 10/ 12 1020.7R
COVE POINT       1148   67     110/ 18/ 22 1019.4R
LEWISETTA        1148   71 71  100/ 21/ 25 1017.3F
SOLOMONS ISLAND  1148   68 73   70/ 14/ 18   N/A
PINEY POINT      1148          100/ 15/ 18   N/A

$$





USA.gov is the U.S. government's official web portal to all federal, state and local government web resources and services.